This is the latest recevied weather packets stored in our database for station/object KF6RAL-6. If no packets are shown the sender has not sent any weather packets the latest 10 day(s).
| Time | Temp. | Humidity | Pressure | Rain* | Wind** | Luminosity | Snow |
|---|---|---|---|---|---|---|---|
| 1777181646 | 11.67° C | 53% | 1001.4 hPa | 0 mm | - | - | - |
| 1777180803 | 12.22° C | 55% | 1002 hPa | 0 mm | - | - | - |
| 1777180382 | 12.22° C | 51% | 1002.1 hPa | 0 mm | - | - | - |
| 1777179961 | 12.22° C | 50% | 1002.1 hPa | 0 mm | - | - | - |
| 1777179540 | 12.22° C | 50% | 1002.1 hPa | 0 mm | - | - | - |
| 1777179119 | 12.22° C | 51% | 1002.3 hPa | 0 mm | - | - | - |
| 1777178698 | 12.22° C | 49% | 1001.8 hPa | 0 mm | - | - | - |
| 1777178277 | 12.22° C | 49% | 1001.9 hPa | 0 mm | - | - | - |
| 1777177856 | 12.22° C | 48% | 1001.9 hPa | 0 mm | - | - | - |
| 1777177435 | 12.22° C | 50% | 1001.8 hPa | 0 mm | - | - | - |
| 1777177014 | 12.22° C | 48% | 1001.9 hPa | 0 mm | - | - | - |
| 1777176593 | 12.78° C | 49% | 1002.5 hPa | 0 mm | - | - | - |
| 1777176172 | 12.78° C | 51% | 1002.4 hPa | 0 mm | - | - | - |
| 1777175751 | 12.78° C | 49% | 1002.7 hPa | 0 mm | - | - | - |
| 1777175330 | 12.78° C | 49% | 1002 hPa | 0 mm | - | - | - |
| 1777174488 | 12.78° C | 52% | 1002 hPa | 0 mm | - | - | - |
| 1777174067 | 12.22° C | 49% | 1002.4 hPa | 0 mm | - | - | - |
| 1777173646 | 12.22° C | 50% | 1002.5 hPa | 0 mm | - | - | - |
| 1777173225 | 12.22° C | 49% | 1002.5 hPa | 0 mm | - | - | - |
| 1777172804 | 12.78° C | 49% | 1002.3 hPa | 0 mm | - | - | - |
| 1777172384 | 12.78° C | 50% | 1002.2 hPa | 0 mm | - | - | - |
| 1777171961 | 12.78° C | 49% | 1002.1 hPa | 0 mm | - | - | - |
| 1777171541 | 12.78° C | 49% | 1002.1 hPa | 0 mm | - | - | - |
| 1777171120 | 12.78° C | 49% | 1002.2 hPa | 0 mm | - | - | - |
| 1777170699 | 12.78° C | 48% | 1002.3 hPa | 0 mm | - | - | - |
* Rain latest hour (hover to see other rain measurements)
** Current wind speed in m/s (hover to see current wind gust speed)